Weather Roundup
Issued by NWS Chicago, IL

Home | Current Version | Previous Version | Graphics & Text | Print | Product List | Glossary On
Versions: 1 2 3 4 5 6 7 8 9 10 11 12 13 14 15 16 17 18 19 20 21 22 23 24 25 26 27 28 29 30 31 32 33 34 35 36 37 38 39 40 41 42 43 44 45 46 47 48 49 50
474
NZUS59 KLOT 252208
HRRLOT

CHICAGO AREA WEATHER ROUNDUP
NATIONAL WEATHER SERVICE CHICAGO/ROMEOVILLE IL
400 PM CST SAT FEB 25 2017

NOTE: "FAIR" INDICATES FEW OR NO CLOUDS BELOW 12,000 FEET WITH NO
SIGNIFICANT WEATHER AND/OR OBSTRUCTIONS TO VISIBILITY.

* THESE STATIONS ARE NOT UNDER NWS QUALITY CONTROL. THEY ALSO MAY NOT
  REPORT WEATHER SUCH AS PRECIPITATION OR FOG.

ILZ005-006-012>014-019>023-252300-
NORTHEAST ILLINOIS

CITY           SKY/WX    TMP DP  RH WIND       PRES   REMARKS
OHARE          FLURRIES  27  14  58 W21G26    29.93R WCI  13
MIDWAY         FLURRIES  27  13  55 W17G25    29.95R WCI  14
AURORA         CLOUDY    28  17  63 W20       29.95R WCI  15
LANSING*       CLOUDY    28  18  65 W21G26    29.94R WCI  15
JOLIET*        CLOUDY    29  18  63 W15G22    29.97R WCI  18
WAUKEGAN       CLOUDY    24  14  65 NW10G18   29.90R WCI  14
DUPAGE AIRPORT CLOUDY    27  14  58 W16       29.94R WCI  15
WHEELING       CLOUDY    25  12  58 W17       29.94R WCI  12
KANKAKEE*      CLOUDY    29  16  57 W15G29    29.97R WCI  18
MORRIS*        CLOUDY    28  17  63 W21G28    29.96S WCI  15
LEWIS AIRPORT* CLOUDY    27  19  72 W21G28    29.96R WCI  13
NORTHERLY ISL    N/A     26  14  60 W13         N/A  WCI  15
$$

WIZ051-052-058>065-066-070>072-252300-
SOUTHEAST WISCONSIN

CITY           SKY/WX    TMP DP  RH WIND       PRES   REMARKS
MILWAUKEE      PTSUNNY   23  11  60 W14       29.90R WCI  11
KENOSHA*       PTSUNNY   24  14  65 W17       29.91R WCI  11
RACINE*        CLOUDY    22  11  62 NW14G21   29.92R WCI   9
WAUKESHA       CLOUDY    19  12  73 W17G26    29.90R WCI   4
WEST BEND      FLURRIES  21  18  86 W7        29.87R WCI  13
$$

INZ001>003-010>013-019-020-252300-
NORTHWEST INDIANA

CITY           SKY/WX    TMP DP  RH WIND       PRES   REMARKS
GARY*          CLOUDY    30  14  51 W20G32    29.95R WCI  18
MICHIGAN CITY* NOT AVBL
RENSSELAER*    NOT AVBL
VALPARAISO     CLOUDY    29  17  61 W21G30    29.93R WCI  16
$$

LMZ740>746-252300-
SOUTHERN LAKE MICHIGAN

STATION/POSITION TIME  SKY/WX   TEMP WIND        PRES    VSBY
                                AIR  DIR/SP/G
                 (UTC)          (F)  (DEG/KT/KT) (MB)    (MI)
HARRISON CRIB    2140            26  270/ 20/ 23   N/A
BURNHAM HARBOR   2200            26  250/ 16/ 18   N/A
CALUMET HARBOR   2142            27  260/ 13/ 20 1013.2R
BURNS HARBOR     2140            28  290/ 16/ 21 1013.9R
MICHIGAN CITY    2140            26  250/ 23/ 26   N/A
$$

ABBREVIATIONS USED IN REMARKS
   TC - TEMPERATURE IN CELSIUS
  WCI - WIND CHILL INDEX
   HX - HEAT INDEX
  VSB - VISIBILITY
$$




USA.gov is the U.S. government's official web portal to all federal, state and local government web resources and services.